Starlink 30862

operational
NORAD ID: 59032 Int'l Des: 2024-038 Owner: SPXS Country: US Constellation: starlink
LEOCIRCULAR

Starlink 30862について

説明を読み込み中...

リアルタイム位置

3D地球を読み込み中...

次回通過

高度履歴

Altitude vs Time

uPlot chart will show altitude changes over time

軌道要素

1 59032U 24038K 25259.75911886 -.00010221 00000-0 -36201-3 0 9997
2 59032 43.0025 278.4367 0001544 282.2827 77.7852 15.27615425 88175
Epoch: Sep 16, 2025 • Age: 29 hours

現在のステータス

高度 482.7 km
速度 7.63 km/s
衛星直下点 12.31°N, 93.48°E
打ち上げ日 Feb 25, 2024
運用期間 1.5 years
タイプ internet

技術仕様

分類 Payload
質量 730.00 kg
乾燥質量 700.00 kg
総質量 730.00 kg
長さ 0.30 m
直径 4.10 m
スパン 29.00 m
形状 Box + pan
製造者 SPXS
バスタイプ Starlink V2M
フェーズステータス In Orbit
所有者/国 SPXS/US

大規模コンステレーション

Loading constellations...